[[{"header":{"parameterUnit":"m.s-1","parameterCategory":1,"la1":30.2991,"la2":30.254,"lo1":-89.0895,"lo2":-89.0444,"dy":0.0017,"dx":0.0017,"nx":28,"ny":28,"refTime":"2023-08-27T03:00:00:Z","depth":0,"parameterNumber":2,"parameterNumberName":"U-component_of_WINDS"},"data":[0,0,0,0,0,0,0,0,0,0,0,0,0,0,0,0,0,0,0,0,0,0,0,0,0,0,0,0,0,0,0,0,0,0,0,0,0,0,0,0,0,0,0,0,0,0,0,0,0,0,0,0,0,0,0,0,0,0,1.4422,1.4422,0,1.4397,1.4397,1.4396,1.4339,1.4337,1.4336,1.4335,1.4308,1.4309,1.4309,0,0,0,0,0,0,0,0,0,0,0,0,0,1.4421,1.4421,1.4422,1.4422,1.4422,1.4397,1.4397,1.4396,1.4339,1.4337,1.4336,1.4334,1.4308,1.4309,1.4309,0,0,0,0,0,0,0,0,0,0,0,0,0,1.4411,1.4422,1.4422,1.439,1.4387,1.4397,1.4397,1.4396,1.4339,1.4337,1.4335,1.4334,1.4308,1.4309,1.4309,1.4349,0,0,1.4311,1.4311,0,0,0,0,0,0,0,0,1.4412,1.4411,1.4395,1.4392,1.4389,1.4369,1.4386,1.438,1.434,1.4357,1.4335,1.4333,1.433,1.4329,1.4328,1.4347,1.4346,1.4311,1.4311,1.4312,1.4312,0,0,0,0,0,0,0,1.4413,1.4412,1.4412,1.4395,1.4391,1.4377,1.4373,1.4385,1.4354,1.4355,1.4351,1.4349,1.4328,1.4327,1.4327,1.4346,1.4311,1.4312,1.4312,1.4312,1.4399,1.44,0,0,0,0,0,0,1.4418,1.4413,1.4413,1.4411,1.4396,1.4378,1.4375,1.4377,1.4354,1.4348,1.4351,1.4346,1.4327,1.4326,1.4326,1.4372,1.4312,1.4312,1.4313,1.4397,1.4399,1.4401,0,0,0,0,0,0,1.4418,1.4419,1.4414,1.4411,1.4409,1.438,1.4384,1.4378,1.4377,1.435,1.4344,1.4356,1.4326,1.4325,1.4344,1.437,1.4313,1.4313,1.4394,1.4397,1.44,1.4463,0,0,0,0,0,0,1.4418,1.4419,1.4434,1.4412,1.441,1.4433,1.4385,1.4378,1.4378,1.4373,1.4353,1.4348,1.4324,1.4343,1.4345,1.437,1.4314,1.4392,1.4396,1.4399,1.4459,1.4468,1.4476,0,0,0,0,0,1.4419,1.4452,1.4435,1.4435,1.4427,1.4434,1.4433,1.4405,1.4381,1.4395,1.4378,1.4349,1.4367,1.4346,1.4347,1.4372,1.439,1.4395,1.4399,1.4455,1.4466,1.4476,0,0,0,0,0,0,1.4476,1.4448,1.4429,1.4456,1.4448,1.4425,1.4442,1.4418,1.4416,1.4411,1.4376,1.4372,1.4397,1.4386,1.4363,1.441,1.4374,1.4379,1.4416,1.4427,1.4435,1.4437,1.4314,0,0,0,0,0,1.4492,1.45,1.4475,1.4502,1.4499,1.4472,1.4473,1.4453,1.4443,1.4439,1.4423,1.4415,1.4419,1.4422,1.4424,1.4457,1.4453,1.4475,1.4484,1.4491,1.4496,1.4514,1.4524,1.4415,1.4415,1.4415,0,0,1.4525,1.4511,1.4518,1.4513,1.4504,1.4514,1.4469,1.448,1.4487,1.4441,1.4458,1.4447,1.4435,1.4462,1.4473,1.4454,1.4525,1.4496,1.4502,1.4503,1.4519,1.453,1.4539,1.4418,1.4418,1.4417,0,0,1.459,1.458,1.4601,1.4594,1.4582,1.4564,1.457,1.455,1.4541,1.4558,1.4524,1.4532,1.4538,1.4532,1.453,1.4595,1.4569,1.4596,1.4641,1.466,1.4668,1.4676,1.47,1.4709,1.4601,1.4601,1.4601,0,1.4633,1.4646,1.4616,1.463,1.4629,1.4588,1.4611,1.4605,1.4594,1.4595,1.4574,1.4583,1.4572,1.4598,1.4614,1.4613,1.4619,1.4599,1.4669,1.4677,1.4683,1.4706,1.4715,1.4605,1.4604,1.4604,1.4604,0,1.4699,1.4709,1.4728,1.472,1.4721,1.4739,1.4712,1.4717,1.4697,1.4681,1.47,1.4686,1.4685,1.469,1.4669,1.4713,1.4702,1.4676,1.4639,1.4698,1.4719,1.4727,1.461,1.4609,1.4607,1.4607,0,0,1.4799,1.4775,1.4783,1.478,1.4764,1.4771,1.4788,1.4788,1.4794,1.4788,1.4802,1.4809,1.4786,1.4783,1.4762,1.4778,1.4833,1.475,1.4749,1.4767,1.4882,1.4902,1.4913,1.4815,1.4816,1.4818,1.4883,0,1.4862,1.4889,1.4863,1.4896,1.4906,1.4868,1.4883,1.4875,1.4861,1.4868,1.4852,1.4859,1.4826,1.4825,1.4839,1.4823,1.4855,1.4818,1.4828,1.4829,1.4834,1.4924,1.4945,1.5008,1.4891,1.4892,1.4893,0,1.4937,1.4937,1.4971,1.4955,1.4958,1.4972,1.4971,1.4977,1.4968,1.4957,1.4955,1.493,1.4946,1.491,1.4932,1.4907,1.491,1.4903,1.4905,1.4905,1.4866,1.4928,1.5027,1.5037,1.4906,1.4905,1.4904,0,1.5009,1.5016,1.5038,1.5036,1.5018,1.5029,1.5022,1.5011,1.5013,1.5012,1.5013,1.5014,1.5014,1.5016,1.4992,1.4967,1.5018,1.4979,1.501,1.5011,1.5022,1.5022,1.5125,1.5023,1.5023,1.5022,1.5022,0,1.5082,1.5105,1.507,1.5084,1.5109,1.5079,1.5105,1.5093,1.5085,1.5096,1.5063,1.5074,1.5041,1.5049,1.503,1.5052,1.5052,1.5044,1.5039,1.5048,1.5049,1.505,1.5045,1.5025,1.5024,1.5024,1.5023,0,1.5166,1.5144,1.5166,1.5147,1.5143,1.5162,1.5146,1.5159,1.5143,1.5158,1.5159,1.5135,1.5143,1.5119,1.5122,1.511,1.5143,1.513,1.5146,1.5143,1.5176,1.5174,1.5283,1.5296,1.5185,1.5186,1.5187,0,1.5215,1.5231,1.5215,1.5221,1.5216,1.5224,1.5227,1.5199,1.5203,1.5195,1.5208,1.5214,1.5216,1.5231,1.5214,1.5217,1.5204,1.5243,1.5205,1.5214,1.5207,1.5207,1.5209,1.5251,1.5252,1.5253,1.5254,0,1.5303,1.5292,1.5297,1.5299,1.5303,1.5303,1.53,1.5307,1.5276,1.5283,1.5291,1.5293,1.5298,1.5304,1.5304,1.5296,1.5271,1.5266,1.5274,1.5283,1.5293,1.529,1.5169,1.5264,1.5263,1.5262,1.5262,1.5261,1.5372,1.5386,1.5377,1.5385,1.538,1.5379,1.539,1.5377,1.5383,1.5385,1.5368,1.538,1.5372,1.5369,1.5365,1.5374,1.5357,1.5367,1.537,1.5373,1.538,1.5291,1.5374,1.5373,1.5373,1.5373,1.5373,0,1.5461,1.5453,1.546,1.5459,1.5465,1.544,1.5437,1.5444,1.5455,1.545,1.5454,1.5464,1.547,1.5454,1.5458,1.5469,1.5458,1.5471,1.5471,1.547,1.5394,1.5388,1.548,1.548,1.548,1.548,1.548,1.548,1.5507,1.5531,1.5518,1.5539,1.5532,1.5544,1.5544,1.5544,1.554,1.5553,1.5558,1.5548,1.5539,1.5542,1.5547,1.5542,1.5546,1.5564,1.5555,1.5485,1.5475,1.5465,1.5459,1.5564,1.5565,1.563,1.563,1.5631]},{"header":{"parameterUnit":"m.s-1","parameterCategory":1,"la1":30.2991,"la2":30.254,"lo1":-89.0895,"lo2":-89.0444,"dy":0.0017,"dx":0.0017,"nx":28,"ny":28,"refTime":"2023-08-27T03:00:00:Z","depth":0,"parameterNumber":3,"parameterNumberName":"V-component_of_WINDS"},"data":[0,0,0,0,0,0,0,0,0,0,0,0,0,0,0,0,0,0,0,0,0,0,0,0,0,0,0,0,0,0,0,0,0,0,0,0,0,0,0,0,0,0,0,0,0,0,0,0,0,0,0,0,0,0,0,0,0,0,-1.8729,-1.8729,0,-1.8751,-1.8751,-1.8751,-1.8737,-1.8736,-1.8735,-1.8735,-1.8755,-1.8756,-1.8757,0,0,0,0,0,0,0,0,0,0,0,0,0,-1.8672,-1.8673,-1.8729,-1.8729,-1.8729,-1.8751,-1.8751,-1.8751,-1.8737,-1.8736,-1.8735,-1.8734,-1.8754,-1.8756,-1.8757,0,0,0,0,0,0,0,0,0,0,0,0,0,-1.8695,-1.8673,-1.8729,-1.8725,-1.8725,-1.8751,-1.8751,-1.8751,-1.8737,-1.8736,-1.8735,-1.8734,-1.8754,-1.8755,-1.8757,-1.8788,0,0,-1.8762,-1.8763,0,0,0,0,0,0,0,0,-1.8694,-1.8697,-1.8725,-1.8725,-1.8725,-1.874,-1.8738,-1.8763,-1.8737,-1.8732,-1.8735,-1.8734,-1.875,-1.8752,-1.8758,-1.8788,-1.8789,-1.8762,-1.8764,-1.8764,-1.8765,0,0,0,0,0,0,0,-1.8692,-1.8696,-1.8737,-1.8726,-1.8725,-1.8721,-1.8723,-1.8743,-1.8746,-1.8733,-1.8732,-1.8735,-1.875,-1.8757,-1.8759,-1.879,-1.8762,-1.8764,-1.8765,-1.8766,-1.8845,-1.8846,0,0,0,0,0,0,-1.8691,-1.8695,-1.8737,-1.8738,-1.8707,-1.8723,-1.8725,-1.8736,-1.8746,-1.8747,-1.8735,-1.8734,-1.8754,-1.8757,-1.8759,-1.8795,-1.8764,-1.8766,-1.8767,-1.8844,-1.8845,-1.8847,0,0,0,0,0,0,-1.869,-1.8695,-1.8736,-1.8716,-1.8721,-1.8725,-1.8737,-1.8737,-1.8744,-1.8748,-1.8749,-1.8742,-1.8754,-1.8757,-1.8781,-1.8796,-1.8767,-1.8768,-1.8843,-1.8844,-1.8846,-1.8868,0,0,0,0,0,0,-1.8689,-1.8695,-1.8707,-1.8717,-1.8722,-1.8758,-1.8738,-1.8738,-1.8747,-1.8745,-1.8755,-1.8755,-1.8753,-1.8778,-1.8782,-1.8798,-1.877,-1.8841,-1.8844,-1.8845,-1.8866,-1.887,-1.8874,0,0,0,0,0,-1.8687,-1.8712,-1.8708,-1.8713,-1.8738,-1.8759,-1.8762,-1.876,-1.8749,-1.876,-1.8763,-1.8755,-1.8794,-1.8781,-1.8785,-1.8801,-1.884,-1.8843,-1.8845,-1.8864,-1.8869,-1.8874,0,0,0,0,0,0,-1.8703,-1.8713,-1.8709,-1.8738,-1.8748,-1.8756,-1.8771,-1.8765,-1.8778,-1.8775,-1.8772,-1.8774,-1.8799,-1.8802,-1.8788,-1.8831,-1.8815,-1.8819,-1.8828,-1.8833,-1.8837,-1.8835,-1.8771,0,0,0,0,0,-1.871,-1.8727,-1.8735,-1.876,-1.8765,-1.8767,-1.8776,-1.8774,-1.8783,-1.8787,-1.8792,-1.88,-1.8815,-1.8824,-1.8837,-1.8866,-1.8868,-1.888,-1.8884,-1.8887,-1.889,-1.8905,-1.891,-1.8855,-1.8855,-1.8854,0,0,-1.8725,-1.8732,-1.8743,-1.8763,-1.877,-1.8787,-1.8771,-1.8789,-1.8801,-1.879,-1.8812,-1.8816,-1.8826,-1.8852,-1.8864,-1.8856,-1.8906,-1.889,-1.8893,-1.8894,-1.8908,-1.8913,-1.8918,-1.8856,-1.8856,-1.8856,0,0,-1.876,-1.8768,-1.8789,-1.8797,-1.8809,-1.881,-1.8815,-1.8825,-1.8827,-1.885,-1.8842,-1.8856,-1.888,-1.8887,-1.8894,-1.8932,-1.8925,-1.8937,-1.8957,-1.8972,-1.8976,-1.898,-1.8993,-1.8998,-1.894,-1.894,-1.894,0,-1.8776,-1.8802,-1.8801,-1.882,-1.8829,-1.882,-1.8842,-1.8849,-1.8864,-1.887,-1.8861,-1.8892,-1.8898,-1.8925,-1.8935,-1.8941,-1.8946,-1.8935,-1.8976,-1.898,-1.8983,-1.8996,-1.9001,-1.8941,-1.8941,-1.8941,-1.8941,0,-1.8821,-1.8839,-1.8855,-1.8871,-1.8882,-1.8902,-1.8903,-1.8914,-1.8911,-1.8913,-1.8936,-1.8943,-1.8957,-1.8964,-1.8961,-1.8991,-1.8986,-1.8977,-1.896,-1.899,-1.9002,-1.9006,-1.8943,-1.8943,-1.8942,-1.8942,0,0,-1.8867,-1.8882,-1.8888,-1.8895,-1.8907,-1.892,-1.894,-1.8955,-1.8964,-1.8975,-1.899,-1.9012,-1.9003,-1.9011,-1.9009,-1.9022,-1.9051,-1.9011,-1.9011,-1.9018,-1.9084,-1.9091,-1.9096,-1.9046,-1.9047,-1.9048,-1.9083,0,-1.8902,-1.8937,-1.8937,-1.8969,-1.8985,-1.8978,-1.8994,-1.9003,-1.9006,-1.9019,-1.9022,-1.9037,-1.9025,-1.9029,-1.9042,-1.9045,-1.9064,-1.9042,-1.906,-1.9061,-1.9057,-1.9103,-1.9109,-1.9142,-1.9088,-1.9089,-1.9089,0,-1.8948,-1.8961,-1.8995,-1.9005,-1.9012,-1.9027,-1.9041,-1.9054,-1.9064,-1.9065,-1.9074,-1.9069,-1.9088,-1.9072,-1.9098,-1.9083,-1.909,-1.9092,-1.9094,-1.9095,-1.9076,-1.9104,-1.9153,-1.9158,-1.9096,-1.9096,-1.9095,0,-1.8977,-1.9003,-1.9027,-1.9033,-1.9046,-1.9056,-1.9062,-1.9071,-1.908,-1.9091,-1.9097,-1.9111,-1.9118,-1.9128,-1.9127,-1.9115,-1.9153,-1.9137,-1.9153,-1.9153,-1.9161,-1.9161,-1.9211,-1.9167,-1.9167,-1.9167,-1.9167,0,-1.9017,-1.9038,-1.904,-1.9055,-1.9078,-1.9077,-1.91,-1.9104,-1.9112,-1.9126,-1.912,-1.9134,-1.9132,-1.9145,-1.9145,-1.9166,-1.9169,-1.917,-1.9169,-1.917,-1.917,-1.9174,-1.9172,-1.9168,-1.9168,-1.9167,-1.9167,0,-1.9053,-1.9056,-1.9081,-1.9091,-1.9094,-1.911,-1.9118,-1.9131,-1.9134,-1.9152,-1.9156,-1.916,-1.9175,-1.9175,-1.9193,-1.9192,-1.9218,-1.9215,-1.9215,-1.9214,-1.9231,-1.9229,-1.9286,-1.9293,-1.9244,-1.9245,-1.9245,0,-1.9078,-1.9094,-1.9106,-1.9115,-1.9122,-1.9137,-1.9147,-1.9147,-1.9156,-1.9169,-1.918,-1.9196,-1.9208,-1.9232,-1.9236,-1.9249,-1.9246,-1.9265,-1.9248,-1.9248,-1.9246,-1.9245,-1.9246,-1.9268,-1.9269,-1.9269,-1.9269,0,-1.9121,-1.9122,-1.9136,-1.9151,-1.9163,-1.9174,-1.9185,-1.9193,-1.9194,-1.9205,-1.9221,-1.9231,-1.9249,-1.9264,-1.9277,-1.9281,-1.9275,-1.9275,-1.9279,-1.928,-1.9279,-1.9279,-1.9223,-1.9273,-1.9273,-1.9273,-1.9272,-1.9272,-1.9152,-1.9166,-1.9176,-1.9193,-1.9201,-1.9211,-1.9224,-1.9228,-1.9242,-1.9258,-1.9256,-1.9274,-1.9283,-1.93,-1.9305,-1.9319,-1.9312,-1.9319,-1.932,-1.9322,-1.9323,-1.9278,-1.9321,-1.9321,-1.9321,-1.9321,-1.9321,0,-1.9195,-1.9201,-1.9216,-1.9232,-1.9244,-1.9239,-1.925,-1.9261,-1.9277,-1.9286,-1.9298,-1.9317,-1.9331,-1.9336,-1.935,-1.9359,-1.9357,-1.9363,-1.9362,-1.9363,-1.9329,-1.9323,-1.9365,-1.9365,-1.9365,-1.9365,-1.9365,-1.9365,-1.9218,-1.9242,-1.9244,-1.927,-1.9276,-1.9295,-1.9302,-1.9311,-1.9318,-1.9339,-1.9352,-1.9355,-1.9362,-1.9376,-1.9389,-1.939,-1.9395,-1.9402,-1.9402,-1.937,-1.9365,-1.9361,-1.9356,-1.9403,-1.9403,-1.9434,-1.9435,-1.9435]}]]